Location: Rounton
(54.4000°N, 1.3500°W)
Time: 13:42:23
(UTC+00:00)

Transit 2A Rocket - Pass Details

Date: 07 December 2021
Orbit: 584 x 918 km, 66.7° (Epoch: 17 January)

Event Time Altitude Azimuth Distance (km) Brightness Sun altitude
Rises 11:05:39 0° 289° (WNW) 3,515 8.1 12.2°
Reaches altitude 10° 11:08:36 10° 302° (WNW) 2,601 7.4 12.2°
Maximum altitude 11:13:38 26° 357° (N) 1,737 6.4 12.4°
Drops below altitude 10° 11:18:41 10° 53° (NE) 2,610 7.5 12.5°
Sets 11:21:39 0° 66° (ENE) 3,530 8.3 12.6°
